NS7V-1 Weather Reports


Display with metric or nautical units.
time (UTC)temp
F
wind
direction
speed
MPH
gust
MPH
rain 1hr
in
rain 24hr
in
rain mn
in
humidity
%
barometer
mb
20260506073522 52 180 3.0 7.0 0.00 0.00 0.00 88 1015.4
20260506072522 52 158 3.0 7.0 0.00 0.00 0.00 88 1015.4
20260506071522 52 158 3.0 6.0 0.00 0.00 0.00 87 1015.3
20260506070542 53 158 3.0 6.0 0.00 0.00 0.00 87 1015.3
20260506061542 54 180 3.0 7.0 0.00 0.00 0.00 86 1015.0
20260506060523 54 180 3.0 7.0 0.00 0.00 0.00 86 1014.9
20260506050522 54 180 2.0 5.0 0.00 0.00 0.00 85 1014.8
20260506044521 54 180 3.0 7.0 0.00 0.00 0.00 85 1014.6
20260506043521 54 180 3.0 6.0 0.00 0.00 0.00 85 1014.5
20260506042522 54 180 2.0 4.0 0.00 0.00 0.00 85 1014.4
20260506041522 54 180 2.0 5.0 0.00 0.00 0.00 85 1014.3
20260506040521 54 203 2.0 6.0 0.00 0.00 0.00 85 1014.2
20260506035521 54 180 3.0 6.0 0.00 0.00 0.00 84 1014.0
20260506034521 54 180 3.0 7.0 0.00 0.00 0.00 84 1013.8
20260506033522 54 203 3.0 7.0 0.00 0.00 0.00 84 1013.8
20260506032521 54 203 3.0 6.0 0.00 0.00 0.00 84 1013.8
20260506031541 56 180 4.0 7.0 0.00 0.00 0.00 82 1013.8
20260506030522 56 158 4.0 8.0 0.00 0.00 0.00 82 1013.7
20260506025601 56 158 4.0 7.0 0.00 0.00 0.00 82 1013.6
20260506024521 56 180 4.0 8.0 0.00 0.00 0.00 82 1013.7
20260506023521 56 180 4.0 7.0 0.00 0.00 0.00 82 1013.6
20260506022521 56 158 4.0 7.0 0.00 0.00 0.00 82 1013.7
20260506021521 56 180 3.0 6.0 0.00 0.00 0.00 82 1013.8
20260506020522 57 180 4.0 8.0 0.00 0.00 0.00 82 1013.8
20260506015545 56 180 3.0 7.0 0.00 0.00 0.00 82 1013.9
20260506014522 57 180 4.0 8.0 0.00 0.00 0.00 82 1013.9
20260506013523 57 180 3.0 7.0 0.00 0.00 0.00 82 1014.0
20260506012521 58 203 3.0 7.0 0.00 0.00 0.00 81 1014.0
20260506011521 58 203 4.0 8.0 0.00 0.00 0.00 80 1013.9
20260506010542 58 203 4.0 7.0 0.00 0.00 0.00 80 1013.9
20260506005541 59 203 4.0 7.0 0.00 0.00 0.00 79 1014.0
20260506004521 59 180 4.0 6.0 0.00 0.00 0.00 78 1014.0
20260506003541 60 180 4.0 9.0 0.00 0.00 0.00 77 1013.9
20260506002521 60 180 4.0 8.0 0.00 0.00 0.00 77 1014.0
20260506001521 60 158 5.0 10.0 0.00 0.00 0.00 77 1014.0
20260506000521 60 180 5.0 9.0 0.00 0.00 0.00 79 1014.2
20260505235521 60 180 5.0 10.0 0.00 0.00 0.00 79 1014.3
20260505234522 60 180 4.0 7.0 0.00 0.00 0.00 78 1014.4
20260505233521 59 180 5.0 9.0 0.00 0.00 0.00 79 1014.5
20260505232642 59 180 5.0 9.0 0.00 0.00 0.00 78 1014.6
20260505231521 59 158 5.0 8.0 0.00 0.00 0.00 80 1014.8
20260505230522 60 180 4.0 9.0 0.00 0.00 0.00 78 1014.8
20260505225521 60 180 4.0 9.0 0.00 0.00 0.00 78 1014.8
20260505224521 60 180 4.0 8.0 0.00 0.00 0.00 78 1015.0
20260505223522 60 180 5.0 8.0 0.00 0.00 0.00 77 1015.1
20260505222521 61 180 4.0 8.0 0.00 0.00 0.00 77 1015.1
20260505221541 60 158 4.0 10.0 0.00 0.00 0.00 77 1015.2
20260505220521 60 180 4.0 8.0 0.00 0.00 0.00 79 1015.2
20260505215521 59 203 5.0 9.0 0.00 0.00 0.00 80 1015.3
20260505214521 59 180 4.0 8.0 0.00 0.00 0.00 81 1015.3
20260505213521 59 180 5.0 9.0 0.00 0.00 0.00 81 1015.4
20260505212521 58 203 5.0 10.0 0.00 0.00 0.00 82 1015.5
20260505211521 59 203 4.0 9.0 0.00 0.00 0.00 83 1015.5
20260505210521 58 203 4.0 9.0 0.00 0.00 0.00 82 1015.6
20260505205521 58 203 4.0 8.0 0.00 0.00 0.00 83 1015.6
20260505204521 57 203 4.0 7.0 0.00 0.00 0.00 84 1015.7
20260505203521 57 180 3.0 7.0 0.00 0.00 0.00 86 1015.8
20260505202542 57 180 4.0 7.0 0.00 0.00 0.00 85 1015.7
20260505201521 57 203 4.0 9.0 0.00 0.00 0.00 85 1015.8
20260505200541 56 203 3.0 6.0 0.00 0.00 0.00 86 1015.7
20260505195521 57 180 3.0 6.0 0.00 0.00 0.00 85 1015.8
20260505194521 57 180 4.0 6.0 0.00 0.00 0.00 85 1015.7
20260505193521 57 180 3.0 6.0 0.00 0.00 0.00 87 1015.7
20260505192521 56 203 3.0 8.0 0.00 0.00 0.00 87 1015.8
20260505191520 56 180 3.0 8.0 0.00 0.00 0.00 86 1015.7
20260505190521 56 203 3.0 7.0 0.00 0.00 0.00 87 1015.7
20260505185521 55 158 3.0 6.0 0.00 0.00 0.00 88 1015.7
20260505184541 55 203 2.0 5.0 0.00 0.00 0.00 89 1015.7
20260505183541 55 158 3.0 7.0 0.00 0.00 0.00 88 1015.8
20260505182521 55 203 3.0 5.0 0.00 0.00 0.00 88 1015.7
20260505181521 55 180 3.0 7.0 0.00 0.00 0.00 90 1015.6
20260505180540 54 180 3.0 5.0 0.00 0.00 0.00 91 1015.5
20260505175521 54 158 2.0 5.0 0.00 0.00 0.00 91 1015.6
20260505174520 54 158 2.0 4.0 0.00 0.00 0.00 91 1015.7
20260505173521 53 158 2.0 6.0 0.00 0.00 0.00 91 1015.6
20260505172521 53 158 2.0 4.0 0.00 0.00 0.00 92 1015.5
20260505171520 53 158 2.0 4.0 0.00 0.00 0.00 93 1015.5
20260505170521 53 158 1.0 4.0 0.00 0.00 0.00 93 1015.5
20260505165521 52 158 2.0 4.0 0.00 0.00 0.00 94 1015.4
20260505164521 52 158 2.0 4.0 0.00 0.00 0.00 94 1015.4
20260505163521 52 180 2.0 4.0 0.00 0.00 0.00 94 1015.3
20260505162521 52 158 2.0 5.0 0.00 0.00 0.00 94 1015.3
20260505161521 52 158 2.0 5.0 0.00 0.00 0.00 94 1015.3
20260505160521 52 180 2.0 4.0 0.00 0.00 0.00 94 1015.3
20260505152520 52 180 3.0 6.0 0.00 0.00 0.00 93 1014.9
20260505151521 52 158 3.0 7.0 0.00 0.00 0.00 93 1014.9
20260505150521 52 180 3.0 7.0 0.00 0.00 0.00 92 1014.8
20260505140521 52 158 3.0 6.0 0.00 0.00 0.00 91 1013.9
20260505124521 51 180 4.0 8.0 0.00 0.00 0.00 90 1013.0
20260505123520 51 180 3.0 7.0 0.00 0.00 0.00 91 1013.0
20260505122540 51 180 3.0 5.0 0.00 0.00 0.00 90 1012.8
20260505121522 51 158 3.0 7.0 0.00 0.00 0.00 90 1012.7
20260505120540 51 158 3.0 7.0 0.00 0.00 0.00 90 1012.6
20260505115520 51 158 3.0 11.0 0.00 0.00 0.00 90 1012.5
20260505114542 51 180 4.0 7.0 0.00 0.00 0.00 89 1012.4
20260505113522 52 180 3.0 7.0 0.00 0.00 0.00 89 1012.3
20260505112520 52 180 3.0 6.0 0.00 0.00 0.00 88 1012.2
20260505111520 52 158 3.0 6.0 0.00 0.00 0.00 88 1012.1
20260505110522 52 180 3.0 6.0 0.00 0.00 0.00 88 1012.0
20260505101522 53 180 4.0 8.0 0.00 0.00 0.00 85 1011.5
20260505100520 53 180 4.0 9.0 0.00 0.00 0.00 85 1011.5
20260505095542 53 180 4.0 9.0 0.00 0.00 0.00 84 1011.4
20260505094540 54 180 3.0 7.0 0.00 0.00 0.00 83 1011.4
20260505093522 55 180 4.0 9.0 0.00 0.00 0.00 81 1011.3
20260505092522 55 180 5.0 10.0 0.00 0.00 0.00 81 1011.1
20260505091602 55 180 4.0 7.0 0.00 0.00 0.00 80 1011.1
20260505090540 54 203 4.0 8.0 0.00 0.00 0.00 81 1011.0
20260505085542 55 180 5.0 11.0 0.00 0.00 0.00 80 1010.9
20260505084521 54 180 4.0 10.0 0.00 0.00 0.00 83 1010.8
20260505083520 53 158 5.0 10.0 0.00 0.00 0.00 85 1010.7
20260505082521 53 158 5.0 14.0 0.00 0.00 0.00 86 1010.7
20260505081522 53 158 6.0 12.0 0.00 0.00 0.00 86 1010.5
20260505080602 53 180 5.0 9.0 0.00 0.00 0.00 86 1010.4